Location: Unspecified
(47.6578°N, 23.5640°E)
Time: 06:38:44
(UTC+02:00)

ISS - Pass Details

Date: 16 December 2017
Orbit: 403 x 407 km, 51.6° (Epoch: 12 December)

Event Time Altitude Azimuth Distance (km) Brightness Sun altitude
Rises 18:03:56 0° 288° (WNW) 2,330 0.9 -14.2°
Reaches altitude 10° 18:06:21 10° 271° (W) 1,465 0.2 -14.6°
Maximum altitude 18:08:52 21° 221° (SW) 987 -1.1 -15.0°
Drops below altitude 10° 18:11:23 10° 171° (S) 1,456 -0.9 -15.4°
Sets 18:13:46 0° 154° (SSE) 2,311 -0.1 -15.8°
